星链-34973 (STARLINK-34973)

导读

STARLINK-34973是美国于2025年8月18日发射的Starlink星链卫星,隶属于SpaceX星链互联网星座项目。作为低轨通信卫星,它承担着为全球用户提供高速低延迟宽带互联网服务的任务,尤其覆盖偏远区域,进一步扩充了星链星座的服务覆盖范围与通信容量。

Basic Information
目录编号:
65250
目录名称:
STARLINK-34973
国际标识:
2025-179R
轨道中心:
EARTH
卫星名称:
星链-34973
卫星全名:
星链-34973 (STARLINK-34973)
卫星状态:
在轨 (已飞行299 天)
发射日期:
2025-08-18 UTC
国别 :
美国 (US)
星等 :
--
Orbit Information
数据来源 国际轨道数据 AOE轨道数据
星历时间 2026-06-13T09:35:45+0800
16小时前
查看轨道信息
2026-06-10T05:00:00+0800
3天前
查看轨道信息
半长轴 6927.617km 6927.672km
偏心率 0.0002432 0.0002613
轨道倾角 97.366° 97.387°
近地点辐角 72.409° 99.258°
升交点赤经 206.191° 203.142°
平近点角 287.740° 252.815°
近地点 547.795km 547.724km
远地点 551.165km 551.346km
周期 95.639分钟 95.640分钟
每日圈数 15.056603 15.056425
Detailed Information
固有亮度:
5
最大亮度:
2.5
卫星平台:
Starlink V1.0
覆盖范围:
全球
运营商:
太空探索技术公司
运营商所在国:
美国
制造商(研发单位):
太空探索技术公司
制造商所在国:
美国
使用方式:
暂无
Satellite Introduction
Starlink 计划是 SpaceX 推出的全球卫星互联网项目,通过发射低轨道卫星,为全球尤其是偏远地区提供高速、低延迟的互联网服务。自 2019 年起,Starlink 已部署数千颗卫星,旨在缩小全球数字鸿沟,推动互联网普及。该项目还为军事、航空等行业提供通信支持,带来广泛经济效益。
2D Orbit Map
3D Orbit Map
Orbit Altitude Analysis Chart
Orbit Inclination Analysis Chart
Orbit Comprehensive Analysis Chart
View Comprehensive Chart